NOAA 17 DEB, 49487

Orbit data source: Space-Track

NOAA 17 DEB, 49487 is space debris in SSO originally from a launch on Mon, 24 Jun 2002 UTC launched from the Air Force Western Test Range (AFWTR). Debris objects in space refer to the collection of defunct objects orbiting the Earth. Examples of debris include non-operational satellites, rocket bodies, and fragments generated from explosions, collisions, or faulty payload assembly.

Loading next visibility...
Identifier
49487, 2002-032DR
Orbit
SSO
Country
Flag of USUS
Related business
Manufacturer
Unknown
Mission
Spacecraft
Bus & Motor
Unknown
Mass
Unknown
Launch date (UTC)
2002-06-24 (23 years ago)
Launch vehicle
Unknown
Launch site
Air Force Western Test Range (AFWTR)
Object type
Payload
Rocket body
Debris
Shape & HBR
Unknown shape, 0.1 m
Radar Cross Section
Small (<0.1 m²)

Expand to show TLE details & history
Last TLE update: 1 day ago

TLE from 1 day ago
0 NOAA 17 DEB
1 49487U 02032DR  25348.50424441  .00009926  00000-0  18161-2 0  9990
2 49487  98.8292   8.6477 0028013 151.6672 208.6060 14.65824988249682
Epoch: 2025-12-14T12:06Z
TLE epoch observation values (Epoch: 2025-12-14T12:06:06.717Z)
Latitude
0.00003°
Longitude
103.7035°
Altitude
694.762 km
Speed
7.5 km/s
True Right ascension
00h 34m 35s
True Declination
0° 00' 00"
Sunlit
Object was in daylight at epoch
Visualization orbit readout
Latitude
Unknown
Longitude
Unknown
Altitude
Unknown
Speed
Unknown
Apparent Right ascension
Unknown
Apparent Declination
Unknown
Sunlit
N/A
Visualization observer readout
Local Sidereal Time
15:07:27
Azimuth
Unknown
Elevation
Unknown
Doppler factor
Unknown
Orbital elements
Apogee altitude
691.28 km
Perigee altitude
651.783 km
Semi-major axis
7,049.668 km
Eccentricity
0.0028
Inclination
98.8292°
RAAN
8.6477°
Arg. of periapsis
151.6672°
True anomaly
208.45278°
Mean anomaly
208.606°
Eccentric anomaly
208.52934°
Mean motion
3.66682 °/min
Orbital period
98.18 mins
BSTAR
0.0018161
Loading maneuver chart data...
Computing Atmospheric mass density...
Loading historical data...
Loading historical data...
Loading historical data...
Loading historical data...
Loading historical data...
Loading historical data...
Loading historical data...

Documentation

Showing up to 5 results
|